Content
SEND FEEDBACK

Daily
Averages
Monthly
Summary
United States of America

FARMINGDALE, SOUTH DAKOTA


Home > North America > United States > South Dakota
Elevation: 2990 feet     Latitude: 43 59N     Longitude: 102 54W

WEATHER
 
SELECT A DAY
Number of Records: 200,374;   Date Range: 1/1/95 - 8/12/14
 
SHARE

PRINT THIS DATA

[ ← Previous Day ]
WEATHER ALMANAC - FEBRUARY 10, 2013
[ Next Day → ]
[ °C ]   °F
Weather ElementAverageHighLow
Temperature26.9 °F30 °F (2:52 am)19 °F (9:52 pm)
Dewpoint20.5 °F26.6 °F (8:15 am)9 °F (11:52 pm)
Humidity76.9 %93 % (8:15 am)64 % (2:52 am)
Barometer29.80 in30.12 in (11:52 pm)29.63 in (2:26 am)
Wind Speed29.5 mph39.1 mph (10:42 am)
Wind Gust49.5 mph (11:06 am)
Weather ElementAverage
Visibility5.6 mi
Wind DirectionNNW (336.2 °)

Weather ElementTotal
Precipitation0.13 in
Heating Degree Days40.5 (Base 65)
Averaged from 47 records on February 10, 2013
WEATHER CONDITIONS BREAKOUT
WIND DIRECTION BREAKOUT
WEATHER BY HOUR - FEBRUARY 10, 2013
[ °C ]   °F
Local TimeTemperatureDewpointHumidityBarometerVisibilityWind DirectionWind SpeedGust SpeedPrecipitationEventsConditions
1:52 AM28.0 °F21.0 °F75 %29.72 in10.0 miNNW (340°)29.9 mph38.0 mphOvercast
2:26 AM28.4 °F21.2 °F74 %29.63 in1.8 miNNW (340°)31.1 mph39.1 mph0.00 inSnowLight Snow
2:32 AM28.4 °F19.4 °F69 %29.63 in3.0 miNNW (340°)27.6 mph39.1 mph0.00 inSnowLight Snow
2:52 AM30.0 °F19.0 °F64 %29.69 in10.0 miNNW (340°)20.7 mph29.9 mph0.00 inOvercast
3:52 AM30.0 °F21.0 °F69 %29.69 in10.0 miNNW (340°)28.8 mph38.0 mphOvercast
4:52 AM30.0 °F21.0 °F69 %29.70 in10.0 miNNW (340°)25.3 mph32.2 mphOvercast
5:52 AM28.9 °F23.0 °F78 %29.71 in10.0 miNNW (340°)26.5 mph36.8 mphOvercast
6:38 AM28.4 °F24.8 °F86 %29.64 in3.0 miNNW (340°)28.8 mph36.8 mph0.00 inSnowLight Snow
6:46 AM28.4 °F24.8 °F86 %29.64 in3.0 miNNW (340°)26.5 mph35.7 mph0.00 inSnowLight Snow
6:47 AM28.0 °F24.1 °F85 %29.74 in3.0 miNNW (340°)26.5 mph35.7 mph0.00 inSnowLight Snow
6:54 AM28.4 °F24.8 °F86 %29.64 in2.0 miNNW (340°)28.8 mph38.0 mph0.00 inSnowLight Snow
7:05 AM28.4 °F24.8 °F86 %29.65 in1.8 miNNW (340°)28.8 mph39.1 mph0.00 inSnowLight Snow
7:27 AM28.4 °F24.8 °F86 %29.65 in0.5 miNNW (340°)28.8 mph39.1 mph0.00 inFog-SnowSnow
7:52 AM28.9 °F25.0 °F85 %29.75 in0.8 miNNW (340°)31.1 mph42.6 mph0.00 inSnowLight Snow
8:04 AM28.4 °F24.8 °F86 %29.66 in0.8 miNNW (340°)31.1 mph40.3 mph0.00 inSnowLight Snow
8:15 AM28.4 °F26.6 °F93 %29.67 in0.8 miNNW (340°)28.8 mph41.4 mph0.02 inSnowLight Snow
8:52 AM28.0 °F25.0 °F88 %29.78 in0.5 miNNW (340°)33.4 mph40.3 mph0.03 inFog-SnowSnow
9:18 AM28.4 °F24.8 °F86 %29.69 in0.5 miNNW (340°)33.4 mph42.6 mph0.01 inFog-SnowSnow
9:30 AM28.4 °F24.8 °F86 %29.70 in0.5 miNNW (340°)35.7 mph42.6 mph0.01 inFog-SnowLight Snow
9:32 AM28.4 °F24.8 °F86 %29.70 in0.5 miNNW (340°)35.7 mph42.6 mph0.01 inFog-SnowLight Snow
9:52 AM28.9 °F23.0 °F78 %29.80 in1.2 miNNW (340°)34.5 mph42.6 mph0.01 inSnowLight Snow
10:42 AM28.4 °F24.8 °F86 %29.73 in3.0 miNNW (340°)39.1 mph46.0 mph0.02 inSnowLight Snow
10:52 AM28.9 °F24.1 °F82 %29.82 in9.0 miNNW (340°)33.4 mph47.2 mph0.02 inSnowLight Snow
11:06 AM28.4 °F21.2 °F74 %29.73 in7.0 miNNW (330°)38.0 mph49.5 mph0.00 inSnowLight Snow
11:44 AM28.4 °F19.4 °F69 %29.74 in9.0 miNNW (340°)33.4 mph44.9 mph0.00 inSnowLight Snow
11:52 AM28.0 °F19.0 °F69 %29.84 in6.0 miNNW (340°)33.4 mph47.2 mph0.00 inSnowLight Snow
12:52 PM28.9 °F19.9 °F69 %29.84 in9.0 miNNW (330°)29.9 mph44.9 mph0.00 inSnowLight Snow
1:52 PM28.9 °F19.9 °F69 %29.84 in10.0 miNNW (340°)27.6 mph46.0 mph0.00 inOvercast
2:32 PM28.4 °F23.0 °F80 %29.77 in1.8 miNNW (330°)31.1 mph40.3 mph0.00 inSnowLight Snow
2:52 PM28.0 °F21.9 °F78 %29.88 in1.5 miNNW (330°)33.4 mph46.0 mph0.00 inSnowLight Snow
2:59 PM26.6 °F23.0 °F86 %29.80 in0.2 miNNW (330°)34.5 mph46.0 mph0.00 inFog-SnowHeavy Snow
3:03 PM26.6 °F21.2 °F80 %29.79 in0.5 miNNW (330°)29.9 mph44.9 mph0.00 inSnowSnow
3:08 PM28.4 °F21.2 °F74 %29.79 in2.0 miNNW (330°)26.5 mph40.3 mph0.00 inSnowLight Snow
3:11 PM28.4 °F21.2 °F74 %29.80 in7.0 miNNW (340°)28.8 mph40.3 mph0.00 inOvercast
3:18 PM28.4 °F21.2 °F74 %29.80 in2.5 miNNW (330°)33.4 mph41.4 mph0.00 inSnowLight Snow
3:29 PM28.4 °F21.2 °F74 %29.80 in9.0 miNNW (330°)28.8 mph39.1 mph0.00 inOvercast
3:52 PM28.9 °F19.0 °F67 %29.91 in10.0 miNNW (330°)33.4 mph42.6 mph0.00 inOvercast
4:52 PM26.1 °F19.0 °F75 %29.96 in10.0 miNNW (330°)35.7 mph46.0 mph0.00 inOvercast
5:52 PM25.0 °F16.0 °F69 %29.99 in10.0 miNNW (330°)33.4 mph44.9 mphOvercast
6:52 PM23.0 °F15.1 °F72 %30.01 in10.0 miNNW (330°)32.2 mph40.3 mphClear
7:52 PM21.9 °F14.0 °F72 %30.03 in10.0 miNNW (340°)29.9 mph40.3 mphClear
8:52 PM19.9 °F12.0 °F71 %30.09 in10.0 miNNW (340°)25.3 mph34.5 mphMostly Cloudy
9:52 PM19.0 °F12.0 °F74 %30.10 in10.0 miNNW (340°)17.3 mphPartly Cloudy
10:06 PM19.4 °F12.2 °F74 %29.98 in10.0 miNNW (330°)17.3 mphMostly Cloudy
10:14 PM19.4 °F10.4 °F68 %29.98 in10.0 miNNW (330°)16.1 mphScattered Clouds
10:52 PM19.9 °F10.9 °F68 %30.10 in10.0 miNW (320°)23.0 mph28.8 mphClear
11:52 PM19.0 °F9.0 °F65 %30.12 in10.0 miNNW (330°)19.6 mphClear
Hourly data recorded from KRAP, located miles away from Farmingdale, South Dakota







STORIES FROM OUR PARTNERS